GW2442 Weather Reports


time (UTC)temp
F
wind
direction
speed
knots
gust
knots
rain 1hr
in
rain 24hr
in
rain mn
in
humidity
%
barometer
mb
20260510094803 49 132 0.0 0.0 0.00 0.00 0.00 99 1008.9
20260510094258 49 131 0.0 0.0 0.00 0.00 0.00 99 1008.6
20260510093754 49 145 0.9 0.9 0.00 0.00 0.00 99 1008.7
20260510093251 49 113 0.0 0.9 0.00 0.00 0.00 99 1008.9
20260510092747 49 114 0.0 0.9 0.00 0.00 0.00 99 1008.4
20260510092243 49 69 1.7 1.7 0.00 0.00 0.00 99 1008.4
20260510091739 49 113 0.0 0.0 0.00 0.00 0.00 99 1008.5
20260510091236 49 113 0.0 0.0 0.00 0.00 0.00 99 1008.6
20260510090732 49 87 0.0 0.9 0.00 0.00 0.00 99 1008.4
20260510090230 49 95 0.0 0.0 0.00 0.00 0.00 99 1008.4
20260510085725 50 95 0.0 0.0 0.00 0.00 0.00 99 1008.5
20260510085220 50 94 0.0 0.0 0.00 0.00 0.00 99 1008.5
20260510084716 50 94 0.0 0.0 0.00 0.00 0.00 99 1008.3
20260510084213 50 94 0.0 0.0 0.00 0.00 0.00 99 1008.4
20260510083710 50 94 0.0 0.0 0.00 0.00 0.00 99 1008.5
20260510083207 50 81 0.0 1.7 0.00 0.00 0.00 99 1008.6
20260510082703 50 99 0.0 0.9 0.00 0.00 0.00 99 1008.6
20260510082159 50 110 0.0 0.9 0.00 0.00 0.00 99 1008.4
20260510081653 50 134 0.0 0.9 0.00 0.00 0.00 99 1008.7
20260510081149 50 136 0.9 0.9 0.00 0.00 0.00 99 1008.7
20260510080648 50 138 1.7 1.7 0.00 0.00 0.00 99 1008.4
20260510080146 50 104 0.9 0.9 0.00 0.00 0.00 99 1008.7
20260510075643 50 104 0.0 0.9 0.00 0.00 0.00 99 1009.0
20260510075140 50 104 0.0 0.9 0.00 0.00 0.00 99 1009.0
20260510074637 50 104 0.0 0.9 0.00 0.00 0.00 99 1009.1
20260510074133 50 104 0.0 0.0 0.00 0.00 0.00 99 1009.2
20260510073629 50 102 0.0 0.0 0.00 0.00 0.00 99 1009.1
20260510073126 50 102 0.0 0.0 0.00 0.00 0.00 99 1009.5
20260510072622 50 102 0.0 0.0 0.00 0.00 0.00 99 1009.2
20260510072119 50 102 0.0 0.0 0.00 0.00 0.00 99 1009.3
20260510071614 50 102 0.0 0.0 0.00 0.00 0.00 99 1009.4
20260510071112 50 102 0.0 0.0 0.00 0.00 0.00 99 1009.3
20260510070609 50 100 0.0 0.9 0.00 0.00 0.00 99 1009.3
20260510070107 50 108 0.0 0.9 0.00 0.00 0.00 99 1009.3
20260510065603 50 94 0.0 0.0 0.00 0.00 0.00 99 1009.3
20260510065059 50 42 0.9 1.7 0.00 0.00 0.00 99 1009.4
20260510064555 50 309 1.7 1.7 0.00 0.00 0.00 99 1009.4
20260510064052 50 83 0.9 0.9 0.00 0.00 0.00 99 1009.0
20260510063549 50 122 0.0 0.9 0.00 0.00 0.00 99 1008.9
20260510063046 50 139 0.0 0.0 0.00 0.00 0.00 99 1008.9
20260510062542 50 100 0.0 0.0 0.00 0.00 0.00 99 1008.8
20260510062037 50 128 0.0 0.0 0.00 0.00 0.00 99 1008.9
20260510061534 50 121 0.0 0.9 0.00 0.00 0.00 99 1008.7
20260510061031 50 121 0.0 0.0 0.00 0.00 0.00 99 1008.9
20260510060527 50 119 0.0 0.0 0.00 0.00 0.00 99 1008.7
20260510060023 50 119 0.0 0.0 0.00 0.00 0.00 99 1009.0
20260510055520 50 119 0.0 0.0 0.00 0.00 0.00 99 1009.1
20260510055018 50 119 0.0 0.0 0.00 0.00 0.00 99 1009.3
20260510054513 50 93 0.0 0.9 0.00 0.00 0.00 99 1009.1
20260510054009 50 93 0.0 0.0 0.00 0.00 0.00 99 1009.2
20260510053503 50 93 0.0 0.0 0.00 0.00 0.00 99 1009.0
20260510053001 50 97 0.0 0.9 0.00 0.00 0.00 99 1008.8
20260510052456 50 111 0.0 0.0 0.00 0.00 0.00 99 1009.0
20260510051953 50 101 0.0 0.9 0.00 0.00 0.00 99 1008.7
20260510051448 50 106 0.0 0.9 0.00 0.00 0.00 99 1008.9
20260510050945 50 53 0.9 1.7 0.00 0.00 0.00 99 1008.7
20260510050442 51 71 0.9 0.9 0.00 0.00 0.00 99 1008.8
20260510045939 50 100 0.0 0.0 0.00 0.00 0.00 99 1008.7
20260510045436 50 129 0.0 0.9 0.00 0.00 0.00 99 1008.7
20260510044933 50 127 0.0 1.7 0.00 0.00 0.00 99 1008.6
20260510044430 51 107 0.0 0.0 0.00 0.00 0.00 99 1008.7
20260510043927 51 61 0.9 1.7 0.00 0.00 0.00 99 1008.5
20260510043422 51 132 0.0 0.0 0.00 0.00 0.00 99 1008.9
20260510042921 51 98 0.0 1.7 0.00 0.00 0.00 99 1008.4
20260510042416 51 129 0.0 0.9 0.00 0.00 0.00 99 1008.7
20260510041912 51 111 0.0 1.7 0.00 0.00 0.00 99 1008.6
20260510041410 51 128 0.0 0.0 0.00 0.00 0.00 99 1008.5
20260510040908 51 95 0.9 0.9 0.00 0.00 0.00 99 1008.6
20260510040404 51 109 0.0 0.9 0.00 0.00 0.00 99 1008.7
20260510035900 51 75 0.0 0.9 0.00 0.27 0.27 99 1008.6
20260510035356 51 136 0.9 0.9 0.00 0.27 0.27 99 1008.5
20260510034851 51 136 0.0 0.9 0.00 0.27 0.27 99 1008.5
20260510034349 51 120 0.0 0.9 0.00 0.27 0.27 99 1008.4
20260510033846 51 104 0.0 0.9 0.00 0.27 0.27 99 1008.5
20260510033342 51 139 0.0 0.9 0.00 0.27 0.27 99 1008.3
20260510032839 51 98 0.0 0.9 0.00 0.27 0.27 99 1008.4
20260510032336 51 111 0.0 0.9 0.00 0.27 0.27 99 1008.4
20260510031831 51 103 0.0 0.9 0.00 0.27 0.27 99 1008.4
20260510031326 51 119 0.0 0.9 0.00 0.27 0.27 99 1008.3
20260510030821 51 117 0.0 0.9 0.00 0.27 0.27 99 1008.4
20260510030318 51 106 0.0 0.0 0.00 0.27 0.27 99 1008.1
20260510025815 50 125 0.0 0.0 0.00 0.27 0.27 99 1008.2
20260510025312 50 142 0.9 0.9 0.00 0.27 0.27 99 1008.2
20260510024809 50 111 0.0 0.9 0.00 0.27 0.27 99 1008.4
20260510024306 50 117 0.0 0.0 0.00 0.27 0.27 99 1008.3
20260510023802 49 120 0.0 0.0 0.00 0.27 0.27 99 1008.2
20260510023259 49 120 0.0 0.0 0.00 0.27 0.27 99 1008.2
20260510022755 49 120 0.0 0.0 0.00 0.27 0.27 99 1008.3
20260510022250 49 121 0.0 0.0 0.00 0.27 0.27 99 1008.5
20260510021749 49 121 0.0 0.0 0.00 0.27 0.27 99 1008.5
20260510021247 50 121 0.0 0.9 0.00 0.27 0.27 99 1008.4
20260510020742 50 119 0.0 0.9 0.00 0.27 0.27 99 1008.2
20260510020237 49 119 0.0 0.9 0.00 0.27 0.27 99 1008.4
20260510015734 49 112 0.0 0.0 0.00 0.27 0.27 99 1008.3
20260510015230 49 112 0.0 0.0 0.00 0.27 0.27 99 1008.4
20260510014724 50 112 0.0 0.0 0.00 0.27 0.27 98 1008.2
20260510014222 50 111 0.0 0.0 0.00 0.27 0.27 98 1008.2
20260510013718 50 121 0.0 0.9 0.00 0.27 0.27 98 1008.2
20260510013213 50 111 0.0 0.9 0.00 0.27 0.27 98 1008.1
20260510012708 50 111 0.9 0.9 0.00 0.27 0.27 98 1008.0
20260510012203 50 109 0.0 0.9 0.00 0.27 0.27 98 1008.0
20260510011658 50 108 0.0 0.0 0.00 0.27 0.27 98 1008.0
20260510011154 51 108 0.0 0.0 0.00 0.27 0.27 98 1008.1
20260510010650 51 107 0.0 0.0 0.00 0.27 0.27 98 1008.0
20260510010148 51 109 0.0 0.0 0.00 0.27 0.27 98 1007.8
20260510005643 51 108 0.0 0.9 0.00 0.27 0.27 98 1007.8
20260510005141 51 109 0.0 0.9 0.00 0.27 0.27 97 1008.0
20260510004639 51 109 0.0 0.0 0.00 0.27 0.27 97 1007.8
20260510004137 51 118 0.0 0.9 0.00 0.27 0.27 97 1008.0
20260510003633 51 118 0.0 0.0 0.00 0.27 0.27 97 1007.7
20260510003129 51 118 0.0 0.0 0.00 0.27 0.27 97 1007.6
20260510002624 51 117 0.0 0.0 0.00 0.27 0.27 97 1007.5
20260510002121 51 125 0.0 0.0 0.00 0.27 0.27 96 1007.5
20260510001617 51 124 0.0 0.0 0.00 0.27 0.27 96 1007.4
20260510001117 52 125 0.0 0.0 0.00 0.27 0.27 96 1007.5
20260510000616 52 125 0.0 0.9 0.00 0.27 0.27 95 1007.1
20260510000114 52 124 0.9 0.9 0.00 0.27 0.27 95 1007.1
20260509235610 53 124 0.0 0.9 0.00 0.27 0.27 94 1007.2
20260509235107 53 117 0.0 0.9 0.00 0.27 0.27 93 1007.1
20260509234603 54 115 0.9 0.9 0.00 0.27 0.27 92 1007.0
20260509234101 54 98 0.0 0.9 0.00 0.27 0.27 91 1006.8
20260509233558 54 55 1.7 1.7 0.00 0.27 0.27 91 1007.0
20260509233055 55 105 0.0 0.9 0.00 0.27 0.27 90 1007.0
20260509232552 55 131 0.0 1.7 0.00 0.27 0.27 90 1007.1
20260509232049 55 147 0.9 1.7 0.00 0.27 0.27 89 1007.0
20260509231545 56 108 0.0 0.9 0.00 0.27 0.27 89 1006.9
20260509231043 56 109 0.0 0.9 0.00 0.27 0.27 88 1006.9
20260509230539 57 109 0.0 1.7 0.00 0.27 0.27 86 1006.9
20260509230037 57 129 0.9 0.9 0.00 0.27 0.27 85 1007.1
20260509225532 58 119 0.9 0.9 0.00 0.27 0.27 85 1006.9
20260509225028 58 133 0.0 1.7 0.00 0.27 0.27 86 1006.8
20260509224524 58 151 0.9 0.9 0.00 0.27 0.27 85 1006.8
20260509224020 57 131 0.0 0.9 0.00 0.27 0.27 88 1007.1
20260509223517 57 128 0.0 0.9 0.00 0.27 0.27 87 1007.1
20260509223016 57 139 0.0 0.9 0.00 0.27 0.27 86 1007.1
20260509222511 57 122 0.0 0.0 0.00 0.27 0.27 88 1007.1
20260509222007 56 113 0.0 0.9 0.00 0.27 0.27 88 1006.9
20260509221503 56 137 0.9 0.9 0.00 0.27 0.27 88 1007.1
20260509220959 55 122 0.0 0.9 0.00 0.27 0.27 89 1007.1
20260509220455 56 128 0.0 0.9 0.00 0.27 0.27 89 1006.9
20260509215951 56 136 0.0 0.9 0.00 0.27 0.27 89 1007.2
20260509215446 56 138 0.0 0.9 0.00 0.27 0.27 89 1007.2
20260509214945 56 69 0.9 0.9 0.00 0.27 0.27 90 1007.2
20260509214442 54 49 1.7 1.7 0.00 0.27 0.27 93 1007.4
20260509213938 54 100 0.9 1.7 0.00 0.27 0.27 93 1007.3
20260509213434 54 136 0.9 2.6 0.00 0.27 0.27 93 1007.4
20260509212931 54 96 0.0 0.9 0.00 0.27 0.27 93 1007.5
20260509212429 54 347 0.9 2.6 0.00 0.27 0.27 93 1007.4
20260509211925 55 68 0.9 1.7 0.00 0.27 0.27 94 1007.3
20260509211420 54 228 0.9 2.6 0.00 0.27 0.27 95 1007.5
20260509210917 53 124 0.0 1.7 0.00 0.27 0.27 95 1007.3
20260509210415 53 126 0.0 0.9 0.00 0.27 0.27 95 1007.5
20260509205910 53 112 0.0 0.9 0.00 0.27 0.27 95 1007.3
20260509205409 53 135 0.0 0.9 0.00 0.27 0.27 95 1007.4
20260509204906 53 130 0.0 0.9 0.00 0.27 0.27 95 1007.6
20260509204402 53 77 0.9 1.7 0.00 0.27 0.27 95 1007.5
20260509203859 53 85 0.9 0.9 0.00 0.27 0.27 96 1007.4
20260509203355 53 120 0.0 0.0 0.00 0.27 0.27 96 1007.5
20260509202852 53 135 0.0 0.9 0.00 0.27 0.27 96 1007.5
20260509202348 53 115 0.0 0.9 0.00 0.27 0.27 96 1007.6
20260509201843 53 153 0.9 0.9 0.00 0.27 0.27 96 1007.4
20260509201339 52 144 0.0 0.9 0.00 0.27 0.27 96 1008.0
20260509200835 52 137 0.0 1.7 0.00 0.27 0.27 97 1007.4
20260509200326 52 134 0.0 0.9 0.05 0.27 0.27 97 1007.6
20260509195822 51 99 0.0 0.9 0.05 0.27 0.27 97 1007.6
20260509195317 51 137 0.0 0.9 0.00 0.26 0.26 97 1008.0
20260509194817 51 73 0.9 0.9 0.07 0.26 0.26 97 1008.0
20260509194313 51 74 0.9 0.9 0.07 0.26 0.26 97 1008.3
20260509193810 51 123 0.0 0.9 0.07 0.25 0.25 97 1008.4
20260509193309 51 113 0.0 0.9 0.07 0.25 0.25 97 1008.5
20260509192806 51 133 0.0 0.9 0.05 0.24 0.24 97 1008.4
20260509192305 51 128 0.0 0.9 0.12 0.24 0.24 97 1008.4
20260509191757 52 125 0.0 1.7 0.12 0.23 0.23 97 1008.5
20260509191254 52 114 0.0 0.9 0.05 0.22 0.22 97 1008.7
20260509190749 52 132 0.0 0.9 0.07 0.21 0.21 96 1008.8
20260509190247 52 130 0.0 0.9 0.07 0.21 0.21 96 1008.8
20260509185744 52 116 0.0 0.9 0.05 0.20 0.20 96 1008.8
20260509185240 52 155 1.7 1.7 0.05 0.20 0.20 96 1008.9
20260509184738 52 158 0.9 2.6 0.07 0.19 0.19 96 1008.9
20260509184235 52 107 0.0 1.7 0.07 0.19 0.19 96 1008.8
20260509183731 52 124 0.0 0.9 0.05 0.18 0.18 96 1009.0
20260509183226 52 135 0.0 2.6 0.05 0.18 0.18 96 1008.9
20260509182722 52 62 0.9 0.9 0.07 0.17 0.17 96 1009.0
20260509182220 52 131 0.0 0.9 0.05 0.16 0.16 96 1008.9
20260509181717 52 131 0.0 0.9 0.12 0.16 0.16 96 1009.1
20260509181215 52 147 0.0 0.9 0.12 0.15 0.15 96 1008.9
20260509180712 52 123 0.9 0.9 0.12 0.14 0.14 96 1009.0
20260509180208 52 114 0.9 1.7 0.14 0.13 0.13 95 1009.1
20260509175704 53 63 0.0 0.9 0.12 0.12 0.12 96 1008.8
20260509175201 53 95 0.0 0.9 0.12 0.10 0.10 95 1009.0
20260509174656 53 122 0.0 0.9 0.12 0.09 0.09 95 1009.2
20260509174151 53 139 0.0 0.9 0.12 0.08 0.08 95 1009.1
20260509173648 53 140 0.9 0.9 0.05 0.07 0.07 94 1009.2
20260509173143 53 126 0.0 0.9 0.07 0.06 0.06 94 1009.2
20260509172640 53 120 0.0 0.9 0.07 0.06 0.06 94 1009.0
20260509172136 53 130 0.0 0.9 0.05 0.05 0.05 93 1008.9
20260509171632 53 149 0.9 1.7 0.05 0.05 0.05 92 1009.2
20260509171128 53 135 0.0 1.7 0.07 0.04 0.04 92 1009.0
20260509170625 54 95 0.0 0.9 0.07 0.04 0.04 92 1009.0
20260509170121 54 104 0.0 0.9 0.05 0.03 0.03 91 1009.1
20260509165619 54 89 0.0 0.9 0.05 0.03 0.03 90 1009.0
20260509165115 54 64 0.0 1.7 0.00 0.02 0.02 90 1009.0
20260509164611 54 123 0.9 0.9 0.00 0.02 0.02 89 1009.0
20260509164107 54 142 0.0 0.9 0.00 0.02 0.02 89 1008.8
20260509163606 55 108 0.0 0.9 0.00 0.02 0.02 90 1009.1
20260509163101 55 127 0.9 1.7 0.00 0.02 0.02 90 1008.9
20260509162558 54 94 0.0 1.7 0.00 0.02 0.02 90 1008.9
20260509162054 53 144 0.9 0.9 0.00 0.02 0.02 91 1008.7
20260509161550 53 139 0.9 1.7 0.00 0.02 0.02 92 1009.1
20260509161045 53 77 0.0 0.9 0.00 0.02 0.02 93 1009.2
20260509160541 52 105 0.9 0.9 0.00 0.02 0.02 93 1009.3
20260509160037 52 100 0.0 0.9 0.00 0.02 0.02 93 1009.4
20260509155533 52 151 0.0 1.7 0.00 0.02 0.02 93 1009.5
20260509155029 52 209 0.9 0.9 0.00 0.02 0.02 93 1009.3
20260509154526 52 140 0.0 0.0 0.00 0.02 0.02 92 1008.9
20260509154023 52 110 0.0 0.0 0.00 0.02 0.02 92 1009.1
20260509153520 52 133 0.0 0.0 0.00 0.02 0.02 91 1009.0
20260509153017 52 111 0.0 0.0 0.07 0.02 0.02 91 1009.1
20260509152513 52 111 0.0 0.9 0.07 0.02 0.02 90 1009.2
20260509152009 52 97 0.0 0.9 0.00 0.01 0.01 89 1009.1
20260509151506 52 113 0.0 0.0 0.00 0.01 0.01 90 1009.4
20260509151005 52 133 0.0 0.0 0.00 0.01 0.01 91 1009.5
20260509150501 52 77 0.9 1.7 0.00 0.01 0.01 90 1009.6
20260509150000 52 126 0.0 0.0 0.00 0.01 0.01 91 1009.6
20260509145455 52 106 0.0 0.0 0.00 0.01 0.01 90 1009.3
20260509144950 52 35 0.9 1.7 0.00 0.01 0.01 90 1009.6
20260509144447 52 85 0.9 0.9 0.00 0.01 0.01 89 1009.7
20260509143944 52 112 0.0 0.9 0.00 0.01 0.01 89 1009.4
20260509143441 52 143 0.0 0.9 0.00 0.01 0.01 89 1009.4
20260509142938 52 129 0.0 0.9 0.07 0.01 0.01 88 1009.5
20260509142434 52 91 0.0 0.0 0.07 0.01 0.01 88 1009.4
20260509141930 52 97 0.9 0.9 0.00 0.00 0.00 87 1009.3
20260509141427 52 109 0.0 0.0 0.00 0.00 0.00 86 1009.3
20260509140924 52 109 0.0 0.0 0.00 0.00 0.00 85 1009.1
20260509140420 52 101 0.0 0.9 0.00 0.00 0.00 85 1009.1
20260509135918 52 98 0.0 0.9 0.00 0.00 0.00 83 1009.1
20260509135416 52 121 0.0 0.0 0.00 0.00 0.00 84 1009.2
20260509134913 52 116 0.0 0.0 0.00 0.00 0.00 83 1009.1
20260509134410 52 93 0.0 0.9 0.00 0.00 0.00 82 1009.0
20260509133907 53 95 0.0 0.9 0.00 0.00 0.00 82 1008.9
20260509133404 53 100 0.0 0.0 0.00 0.00 0.00 81 1008.9
20260509132902 52 100 0.9 0.9 0.00 0.00 0.00 80 1009.0
20260509132400 52 141 0.0 0.9 0.00 0.00 0.00 80 1009.2
20260509131857 52 102 0.0 0.9 0.00 0.00 0.00 81 1009.3
20260509131354 52 112 0.0 0.0 0.00 0.00 0.00 80 1009.2
20260509130850 52 101 0.0 0.9 0.00 0.00 0.00 80 1009.1
20260509130346 52 103 0.9 0.9 0.00 0.00 0.00 79 1009.4
20260509125843 52 118 0.0 0.9 0.00 0.00 0.00 80 1009.5
20260509125339 52 95 0.0 0.9 0.00 0.00 0.00 80 1009.6
20260509124835 52 126 0.0 0.0 0.00 0.00 0.00 82 1009.6
20260509124333 52 73 0.9 0.9 0.00 0.00 0.00 80 1009.5
20260509123831 51 103 0.0 0.9 0.00 0.00 0.00 81 1009.6
20260509123328 51 149 0.0 0.9 0.00 0.00 0.00 81 1009.7
20260509122823 51 108 0.0 0.9 0.00 0.00 0.00 83 1009.4
20260509122320 51 101 0.0 0.9 0.00 0.00 0.00 82 1009.5
20260509121817 51 91 0.0 0.0 0.00 0.00 0.00 83 1009.3
20260509121314 50 90 0.0 0.9 0.00 0.00 0.00 85 1009.6
20260509120813 50 101 0.0 0.9 0.00 0.00 0.00 87 1009.4
20260509120310 50 99 0.0 0.9 0.00 0.00 0.00 90 1009.5
20260509115808 50 98 0.0 0.9 0.00 0.00 0.00 91 1009.5
20260509115307 49 102 0.0 0.0 0.00 0.00 0.00 90 1009.5
20260509114803 49 87 0.9 0.9 0.00 0.00 0.00 91 1009.5
20260509114302 49 149 0.0 0.9 0.00 0.00 0.00 91 1009.6
20260509113800 49 153 0.9 0.9 0.00 0.00 0.00 92 1008.9
20260509113256 49 90 0.9 0.9 0.00 0.00 0.00 92 1008.7
20260509112753 48 89 0.9 0.9 0.00 0.00 0.00 93 1008.7
20260509112250 49 91 0.9 0.9 0.00 0.00 0.00 93 1009.0
20260509111747 48 114 0.0 0.0 0.00 0.00 0.00 92 1009.1
20260509111244 48 115 0.0 0.0 0.00 0.00 0.00 92 1009.3
20260509110741 48 114 0.0 0.0 0.00 0.00 0.00 92 1008.9
20260509110238 47 114 0.0 0.9 0.00 0.00 0.00 92 1009.0
20260509105736 47 95 0.0 0.9 0.00 0.00 0.00 94 1009.1
20260509105233 47 95 1.7 1.7 0.00 0.00 0.00 94 1009.0
20260509104730 48 95 0.9 0.9 0.00 0.00 0.00 94 1009.2
20260509104227 48 106 0.0 0.9 0.00 0.00 0.00 92 1009.1
20260509103725 48 108 0.0 0.0 0.00 0.00 0.00 91 1009.4
20260509103222 48 108 0.0 0.9 0.00 0.00 0.00 91 1009.3
20260509102720 48 107 0.0 0.9 0.00 0.00 0.00 91 1009.3
20260509102217 48 111 0.0 0.9 0.00 0.00 0.00 90 1009.2
20260509101714 48 111 0.9 0.9 0.00 0.00 0.00 90 1009.2
20260509101210 48 111 0.9 0.9 0.00 0.00 0.00 90 1009.2
20260509100708 47 113 0.0 0.9 0.00 0.00 0.00 89 1009.3
20260509100204 47 112 0.0 0.9 0.00 0.00 0.00 91 1009.3
20260509095701 47 113 0.0 0.0 0.00 0.00 0.00 92 1009.3